sat.trackr.live / text

‹ back to catalog

STARLINK-37997

NORAD 69682 · 2026-145F

PAYLOAD ACTIVE UNKNOWN

§ Identity

Operator
Country
US
Launch date
2026-06-25
Launch site
AFWTR
Launch vehicle
Mass (kg)
RCS (m²)

Purposes: comms

External: N2YO · Heavens-Above · Gunter

§ Orbital elements

Epoch: 2026-09-19T23:53:26.378880Z

Period
93.91 min
Inclination
97.2823°
Eccentricity
0.0002369
Mean motion
15.33444861 rev/d
Perigee alt
463.9 km
Apogee alt
467.2 km
Semi-major
6,843.7 km
B*
3.5597e-4
RAAN
109.6341°
Arg perigee
83.7902°
Mean anomaly
276.3611°
Rev number
1,471

§ Raw data

STARLINK-379971 69682U 26145F   26262.99544420  .00011435  00000+0  35597-3 0  99992 69682  97.2823 109.6341 0002369  83.7902 276.3611 15.33444861 14715

JSON: /api/v1/satellites/69682 · /tle

For live sub-satellite position, see the globe view (requires WebGL).

§ Visibility from observer

Set your observer location to see the next 7 days of passes ≥ 10°. The values pass through the URL so the page stays shareable.

No JS? Fill the form by hand. The geolocation button needs JavaScript.